����,���ϕ���(m/s),���ϕ���,�ő�u�ԕ���(m/s),�ő啗��������,�C��(��),���x(%),10���Ԉړ��ώZ�J��(mm),1���Ԉړ��ώZ�J��(mm),���J��(mm),�݌v�J��(mm),����(���ώZ)(MJ/m2),����(���ώZ)(min),���n�C��(hPa),�C�ʋC��(hPa)
2022-06-06T00:00:00+09:00,1,�쐼,1.7,��쐼,17.9,98.3,1,1.5,6.5,6.5,12.29,198,990.6,1004.2
2022-06-06T00:01:00+09:00,1,�쐼,1.7,��쐼,17.6,98.2,1,1.5,0,6.5,0,0,990.5,1004.1
2022-06-06T00:02:00+09:00,0.9,�쐼,1.7,�쐼,17.6,98.1,1,1.5,0,6.5,0,0,990.5,1004.1
2022-06-06T00:03:00+09:00,0.9,�쐼,1.6,�쐼,17.6,98.2,1,1.5,0,6.5,0,0,990.5,1004.1
2022-06-06T00:04:00+09:00,0.8,�쐼,1.6,�쐼,17.7,98.2,1.5,2,0.5,7,0,0,990.4,1004
2022-06-06T00:05:00+09:00,0.7,�쐼,1.4,��쐼,17.8,98.4,1,2,0.5,7,0,0,990.4,1004
2022-06-06T00:06:00+09:00,0.6,�쐼,1.3,��쐼,17.8,98.3,1,2,0.5,7,0,0,990.3,1003.9
2022-06-06T00:07:00+09:00,0.6,�쐼,1.3,��쐼,17.9,98.4,1,2,0.5,7,0,0,990.3,1003.8
2022-06-06T00:08:00+09:00,0.6,�쐼,1.3,��쐼,17.8,98.3,1,2,0.5,7,0,0,990.3,1003.9
2022-06-06T00:09:00+09:00,0.7,�쐼,1.3,��쐼,17.6,98.2,0.5,2,0.5,7,0,0,990.2,1003.8
2022-06-06T00:10:00+09:00,0.7,�쐼,1.3,��쐼,17.8,98.2,0.5,2,0.5,7,0,0,990.2,1003.8
2022-06-06T00:11:00+09:00,0.7,�쐼,1.3,��쐼,17.6,98.3,0.5,2,0.5,7,0,0,990.2,1003.8
2022-06-06T00:12:00+09:00,0.6,�쐼,1.3,��쐼,17.5,98.1,1,2.5,1,7.5,0,0,990.2,1003.8
2022-06-06T00:13:00+09:00,0.6,�쐼,1.1,��쐼,17.6,98.2,1,2.5,1,7.5,0,0,990.1,1003.7
2022-06-06T00:14:00+09:00,0.6,�쐼,1.1,��쐼,17.7,98.3,0.5,2.5,1,7.5,0,0,990.1,1003.7
2022-06-06T00:15:00+09:00,0.5,�쐼,1.1,��쐼,17.7,98.4,0.5,2.5,1,7.5,0,0,990.1,1003.7
2022-06-06T00:16:00+09:00,0.5,��쐼,1.1,��쐼,17.5,98.3,0.5,2.5,1,7.5,0,0,990.1,1003.7
2022-06-06T00:17:00+09:00,0.5,��쐼,1,��쐼,17.4,98.1,0.5,2.5,1,7.5,0,0,990,1003.6
2022-06-06T00:18:00+09:00,0.4,��쐼,1,��쐼,17.4,98.2,0.5,2.5,1,7.5,0,0,989.9,1003.5
2022-06-06T00:19:00+09:00,0.4,��쐼,1,��쐼,17.6,98.3,0.5,2.5,1,7.5,0,0,989.9,1003.5
2022-06-06T00:20:00+09:00,0.4,��쐼,1,��쐼,17.5,98.3,0.5,2.5,1,7.5,0,0,989.9,1003.5
2022-06-06T00:21:00+09:00,0.4,��쐼,1,��쐼,17.5,98.3,0.5,2.5,1,7.5,0,0,989.8,1003.4
2022-06-06T00:22:00+09:00,0.4,��쐼,1,��쐼,17.5,98.3,0,2.5,1,7.5,0,0,989.8,1003.4
2022-06-06T00:23:00+09:00,0.3,��쐼,1,��쐼,17.5,98.3,0,2.5,1,7.5,0,0,989.7,1003.3
2022-06-06T00:24:00+09:00,0.3,��쐼,1,��쐼,17.5,98.4,0.5,3,1.5,8,0,0,989.6,1003.2
2022-06-06T00:25:00+09:00,0.3,��쐼,1,��쐼,17.5,98.3,0.5,3,1.5,8,0,0,989.6,1003.2
2022-06-06T00:26:00+09:00,0.3,��쐼,1,��쐼,17.6,98.4,0.5,3,1.5,8,0,0,989.6,1003.2
2022-06-06T00:27:00+09:00,0.3,��쐼,0.9,�쐼,17.5,98.4,0.5,3,1.5,8,0,0,989.6,1003.2
2022-06-06T00:28:00+09:00,0.3,�쐼,0.9,�쐼,17.5,98.4,0.5,3,1.5,8,0,0,989.6,1003.2
2022-06-06T00:29:00+09:00,0.3,�쐼,0.9,�쐼,17.8,98.5,0.5,3,1.5,8,0,0,989.6,1003.1
2022-06-06T00:30:00+09:00,0.2,�É�,0.9,�쐼,17.7,98.6,0.5,3,1.5,8,0,0,989.5,1003
2022-06-06T00:31:00+09:00,0.2,�É�,0.9,�쐼,17.5,98.4,0.5,3,1.5,8,0,0,989.5,1003.1
2022-06-06T00:32:00+09:00,0.2,�É�,0.9,�쐼,17.5,98.3,0.5,3,1.5,8,0,0,989.4,1003
2022-06-06T00:33:00+09:00,0.2,�É�,0.9,�쐼,17.6,98.4,0.5,3,1.5,8,0,0,989.4,1002.9
2022-06-06T00:34:00+09:00,0.3,��쐼,0.9,�쐼,17.5,98.4,0,3,1.5,8,0,0,989.4,1003
2022-06-06T00:35:00+09:00,0.3,��쐼,0.9,�쐼,17.6,98.5,0,3,1.5,8,0,0,989.3,1002.8
2022-06-06T00:36:00+09:00,0.3,��쐼,0.9,�쐼,17.6,98.5,0,3,1.5,8,0,0,989.3,1002.8
2022-06-06T00:37:00+09:00,0.3,��쐼,0.9,�쐼,17.5,98.5,0,3,1.5,8,0,0,989.2,1002.8
2022-06-06T00:38:00+09:00,0.3,��쐼,0.9,�쐼,17.5,98.4,0,3,1.5,8,0,0,989.2,1002.8
2022-06-06T00:39:00+09:00,0.4,��쐼,1,�쐼,17.6,98.5,0,3,1.5,8,0,0,989.2,1002.7
2022-06-06T00:40:00+09:00,0.4,��쐼,1,�쐼,17.5,98.5,0,3,1.5,8,0,0,989.1,1002.7
2022-06-06T00:41:00+09:00,0.4,��쐼,1,�쐼,17.5,98.4,0,3,1.5,8,0,0,989.1,1002.7
2022-06-06T00:42:00+09:00,0.4,��쐼,1,�쐼,17.6,98.4,0.5,3.5,2,8.5,0,0,989,1002.5
2022-06-06T00:43:00+09:00,0.4,��쐼,1,�쐼,17.7,98.6,0.5,3.5,2,8.5,0,0,989,1002.5
2022-06-06T00:44:00+09:00,0.5,�쐼,1,�쐼,17.7,98.7,0.5,3.5,2,8.5,0,0,988.9,1002.4
2022-06-06T00:45:00+09:00,0.5,�쐼,1,�쐼,17.5,98.5,0.5,3.5,2,8.5,0,0,988.9,1002.4
2022-06-06T00:46:00+09:00,0.6,�쐼,1,�쐼,17.6,98.5,0.5,3,2,8.5,0,0,988.9,1002.4
2022-06-06T00:47:00+09:00,0.6,�쐼,1.1,��쐼,17.7,98.5,0.5,3,2,8.5,0,0,988.8,1002.3
2022-06-06T00:48:00+09:00,0.7,�쐼,1.4,��쐼,17.6,98.6,0.5,3,2,8.5,0,0,988.8,1002.3
2022-06-06T00:49:00+09:00,0.7,�쐼,1.4,��쐼,17.5,98.5,0.5,3,2,8.5,0,0,988.8,1002.3
2022-06-06T00:50:00+09:00,0.7,�쐼,1.4,��쐼,17.6,98.4,0.5,3,2,8.5,0,0,988.9,1002.4
2022-06-06T00:51:00+09:00,0.7,�쐼,1.4,��쐼,17.5,98.6,0.5,3,2,8.5,0,0,988.9,1002.4
2022-06-06T00:52:00+09:00,0.7,�쐼,1.4,��쐼,17.6,98.5,0,3,2,8.5,0,0,988.8,1002.3
2022-06-06T00:53:00+09:00,0.7,�쐼,1.4,��쐼,17.5,98.5,0,3,2,8.5,0,0,988.8,1002.3
2022-06-06T00:54:00+09:00,0.7,��쐼,1.4,��쐼,17.5,98.5,0,3,2,8.5,0,0,988.8,1002.3
2022-06-06T00:55:00+09:00,0.7,��쐼,1.4,��쐼,17.7,98.6,0,2.5,2,8.5,0,0,988.7,1002.2
2022-06-06T00:56:00+09:00,0.7,��쐼,1.4,��쐼,17.6,98.7,0,2.5,2,8.5,0,0,988.7,1002.2
2022-06-06T00:57:00+09:00,0.7,��쐼,1.4,��쐼,17.6,98.5,0,2.5,2,8.5,0,0,988.7,1002.2
2022-06-06T00:58:00+09:00,0.7,��쐼,1.3,��쐼,17.6,98.5,0,2.5,2,8.5,0,0,988.7,1002.2
2022-06-06T00:59:00+09:00,0.7,��쐼,1.3,��쐼,17.4,98.5,0,2,2,8.5,0,0,988.7,1002.2
2022-06-06T01:00:00+09:00,0.7,��쐼,1.3,��쐼,17.4,98.5,0,2,2,8.5,0,0,988.7,1002.2
2022-06-06T01:01:00+09:00,0.7,��쐼,1.3,��쐼,17.4,98.5,0,2,2,8.5,0,0,988.7,1002.2
2022-06-06T01:02:00+09:00,0.8,��쐼,1.3,��쐼,17.4,98.5,0,2,2,8.5,0,0,988.6,1002.1
2022-06-06T01:03:00+09:00,0.8,��쐼,1.3,��쐼,17.6,98.6,0,2,2,8.5,0,0,988.6,1002.1
2022-06-06T01:04:00+09:00,0.7,��쐼,1.3,��쐼,17.5,98.6,0,1.5,2,8.5,0,0,988.6,1002.1
2022-06-06T01:05:00+09:00,0.7,��쐼,1.3,��쐼,17.5,98.6,0,1.5,2,8.5,0,0,988.6,1002.1
2022-06-06T01:06:00+09:00,0.7,��쐼,1.3,��쐼,17.4,98.5,0,1.5,2,8.5,0,0,988.5,1002
2022-06-06T01:07:00+09:00,0.7,��쐼,1.3,��,17.4,98.5,0,1.5,2,8.5,0,0,988.5,1002
2022-06-06T01:08:00+09:00,0.7,��쐼,1.3,��,17.4,98.5,0,1.5,2,8.5,0,0,988.5,1002
2022-06-06T01:09:00+09:00,0.6,��쐼,1.3,��,17.4,98.5,0,1.5,2,8.5,0,0,988.5,1002
2022-06-06T01:10:00+09:00,0.6,��쐼,1.3,��,17.4,98.6,0,1.5,2,8.5,0,0,988.5,1002
2022-06-06T01:11:00+09:00,0.6,��쐼,1.3,��,17.6,98.6,0,1.5,2,8.5,0,0,988.4,1001.9
2022-06-06T01:12:00+09:00,0.6,��,1.3,��,17.5,98.6,0,1,2,8.5,0,0,988.4,1001.9
2022-06-06T01:13:00+09:00,0.5,��,1.3,��,17.5,98.6,0,1,2,8.5,0,0,988.3,1001.8
2022-06-06T01:14:00+09:00,0.5,��쓌,1.3,��,17.6,98.7,0,1,2,8.5,0,0,988.3,1001.8
2022-06-06T01:15:00+09:00,0.5,��쓌,1.3,��,17.7,98.7,0,1,2,8.5,0,0,988.2,1001.7
2022-06-06T01:16:00+09:00,0.4,�쓌,1.3,��쐼,17.6,98.7,0,1,2,8.5,0,0,988.1,1001.6
2022-06-06T01:17:00+09:00,0.3,���쓌,1.3,��쐼,17.6,98.6,0,1,2,8.5,0,0,988,1001.5
2022-06-06T01:18:00+09:00,0.3,��,1.1,���k��,17.5,98.6,0,1,2,8.5,0,0,988,1001.5
2022-06-06T01:19:00+09:00,0.3,��,1.1,���k��,17.6,98.6,0,1,2,8.5,0,0,987.9,1001.4
2022-06-06T01:20:00+09:00,0.2,�É�,1.1,���k��,17.5,98.6,0,1,2,8.5,0,0,987.9,1001.4
2022-06-06T01:21:00+09:00,0.2,�É�,1.1,���k��,17.5,98.6,0,1,2,8.5,0,0,987.9,1001.4
2022-06-06T01:22:00+09:00,0.2,�É�,1.1,���k��,17.5,98.6,0,1,2,8.5,0,0,987.9,1001.4
2022-06-06T01:23:00+09:00,0.2,�É�,1.1,���k��,17.6,98.6,0,1,2,8.5,0,0,987.9,1001.4
2022-06-06T01:24:00+09:00,0.2,�É�,1.1,���k��,17.8,98.7,0,0.5,2,8.5,0,0,988,1001.5
2022-06-06T01:25:00+09:00,0.3,��,1.1,���k��,17.8,98.8,0,0.5,2,8.5,0,0,988,1001.5
2022-06-06T01:26:00+09:00,0.3,���쐼,1.3,��,17.7,98.8,0,0.5,2,8.5,0,0,988.1,1001.6
2022-06-06T01:27:00+09:00,0.3,���쐼,1.3,��,17.8,98.7,0,0.5,2,8.5,0,0,988.1,1001.6
2022-06-06T01:28:00+09:00,0.3,���쐼,1.3,��,17.7,98.7,0,0.5,2,8.5,0,0,988.1,1001.6
2022-06-06T01:29:00+09:00,0.3,���쐼,1.4,��,17.8,98.7,0,0.5,2,8.5,0,0,988,1001.5
2022-06-06T01:30:00+09:00,0.5,��,2,���k��,17.7,98.6,0,0.5,2,8.5,0,0,988,1001.5
2022-06-06T01:31:00+09:00,0.6,��,2,���k��,17.7,98.6,0,0.5,2,8.5,0,0,987.9,1001.4
2022-06-06T01:32:00+09:00,0.6,��,2,���k��,17.6,98.6,0,0.5,2,8.5,0,0,987.9,1001.4
2022-06-06T01:33:00+09:00,0.7,��,2,���k��,17.8,98.6,0,0.5,2,8.5,0,0,987.9,1001.4
2022-06-06T01:34:00+09:00,0.8,��,2,���k��,17.7,98.6,0,0.5,2,8.5,0,0,987.9,1001.4
2022-06-06T01:35:00+09:00,0.8,��,2,���k��,17.8,98.6,0,0.5,2,8.5,0,0,987.9,1001.4
2022-06-06T01:36:00+09:00,0.8,��,2,���k��,17.9,98.7,0,0.5,2,8.5,0,0,987.8,1001.3
2022-06-06T01:37:00+09:00,0.9,��,2,���k��,17.9,98.8,0,0.5,2,8.5,0,0,987.8,1001.3
2022-06-06T01:38:00+09:00,0.9,��,2,���k��,18,98.8,0,0.5,2,8.5,0,0,987.7,1001.2
2022-06-06T01:39:00+09:00,0.8,���k��,2,���k��,18,98.8,0,0.5,2,8.5,0,0,987.7,1001.2
2022-06-06T01:40:00+09:00,0.7,���k��,1.6,��,18,98.7,0.5,1,2.5,9,0,0,987.6,1001.1
2022-06-06T01:41:00+09:00,0.6,���k��,1.2,���k��,17.9,98.6,0.5,1,2.5,9,0,0,987.6,1001.1
2022-06-06T01:42:00+09:00,0.6,�k��,1.2,���k��,18,98.7,0.5,0.5,2.5,9,0,0,987.6,1001.1
2022-06-06T01:43:00+09:00,0.6,�k��,1.2,���k��,17.9,98.7,0.5,0.5,2.5,9,0,0,987.6,1001.1
2022-06-06T01:44:00+09:00,0.5,�k��,1.2,���k��,17.9,98.5,0.5,0.5,2.5,9,0,0,987.6,1001.1
2022-06-06T01:45:00+09:00,0.4,�k��,1.1,���k��,18,98.7,0.5,0.5,2.5,9,0,0,987.5,1001
2022-06-06T01:46:00+09:00,0.3,�k��,0.8,���k��,18,98.7,0.5,0.5,2.5,9,0,0,987.5,1001
2022-06-06T01:47:00+09:00,0.4,�k��,1,�k��,18,98.6,0.5,0.5,2.5,9,0,0,987.5,1001
2022-06-06T01:48:00+09:00,0.4,�k��,1,�k��,18,98.6,0.5,0.5,2.5,9,0,0,987.5,1001
2022-06-06T01:49:00+09:00,0.4,�k��,1,�k��,17.9,98.6,0.5,0.5,2.5,9,0,0,987.4,1000.9
2022-06-06T01:50:00+09:00,0.3,���k��,1,�k��,17.7,98.5,0,0.5,2.5,9,0,0,987.4,1000.9
2022-06-06T01:51:00+09:00,0.3,���k��,1,�k��,17.9,98.5,0,0.5,2.5,9,0,0,987.4,1000.9
2022-06-06T01:52:00+09:00,0.3,���k��,1,�k��,17.9,98.6,0,0.5,2.5,9,0,0,987.4,1000.9
2022-06-06T01:53:00+09:00,0.3,��,1,�k��,17.7,98.4,0,0.5,2.5,9,0,0,987.4,1000.9
2022-06-06T01:54:00+09:00,0.3,��,1.4,��,17.8,98.4,0,0.5,2.5,9,0,0,987.4,1000.9
2022-06-06T01:55:00+09:00,0.4,�k�k��,1.6,���k��,17.7,98.5,0,0.5,2.5,9,0,0,987.3,1000.8
2022-06-06T01:56:00+09:00,0.5,��,1.6,���k��,17.8,98.5,0,0.5,2.5,9,0,0,987.3,1000.8
2022-06-06T01:57:00+09:00,0.4,��,1.6,���k��,17.7,98.5,0,0.5,2.5,9,0,0,987.3,1000.8
2022-06-06T01:58:00+09:00,0.4,��,1.6,���k��,17.7,98.5,0,0.5,2.5,9,0,0,987.3,1000.8
2022-06-06T01:59:00+09:00,0.4,��,1.6,���k��,17.7,98.4,0,0.5,2.5,9,0,0,987.3,1000.8
2022-06-06T02:00:00+09:00,0.4,���k��,1.6,���k��,17.9,98.5,0,0.5,2.5,9,0,0,987.2,1000.7
2022-06-06T02:01:00+09:00,0.4,��,1.6,���k��,17.8,98.6,0,0.5,2.5,9,0,0,987.2,1000.7
2022-06-06T02:02:00+09:00,0.4,��,1.6,���k��,17.9,98.5,0,0.5,2.5,9,0,0,987.1,1000.6
2022-06-06T02:03:00+09:00,0.4,���k��,1.6,���k��,17.9,98.5,0,0.5,2.5,9,0,0,987.1,1000.6
2022-06-06T02:04:00+09:00,0.3,�k��,1.6,���k��,17.9,98.5,0,0.5,2.5,9,0,0,987.1,1000.6
2022-06-06T02:05:00+09:00,0.3,�k��,1.3,��쐼,17.9,98.4,0,0.5,2.5,9,0,0,987.1,1000.6
2022-06-06T02:06:00+09:00,0.3,�k��,1.4,�쐼,17.7,98.3,0,0.5,2.5,9,0,0,987.1,1000.6
2022-06-06T02:07:00+09:00,0.3,�k�k��,1.4,�쐼,17.8,98.2,0,0.5,2.5,9,0,0,987.1,1000.6
2022-06-06T02:08:00+09:00,0.3,�k,1.4,�쐼,18,98.4,0.5,1,3,9.5,0,0,987.1,1000.6
2022-06-06T02:09:00+09:00,0.4,�k,1.4,�쐼,18,98.5,0.5,1,3,9.5,0,0,987.1,1000.6
2022-06-06T02:10:00+09:00,0.4,�k�k��,1.4,�쐼,17.9,98.5,0.5,1,3,9.5,0,0,987.1,1000.6
2022-06-06T02:11:00+09:00,0.4,�k��,1.4,�쐼,17.8,98.2,0.5,1,3,9.5,0,0,987.1,1000.6
2022-06-06T02:12:00+09:00,0.5,��,1.6,�쐼,17.8,98.1,0.5,1,3,9.5,0,0,987.1,1000.6
2022-06-06T02:13:00+09:00,0.5,���쐼,1.6,�쐼,17.7,98,0.5,1,3,9.5,0,0,987.1,1000.6
2022-06-06T02:14:00+09:00,0.6,��쐼,1.6,�쐼,17.7,98,0.5,1,3,9.5,0,0,987.1,1000.6
2022-06-06T02:15:00+09:00,0.5,��,1.6,�쐼,17.8,98.1,0.5,1,3,9.5,0,0,987,1000.5
2022-06-06T02:16:00+09:00,0.4,���쓌,1.6,�쐼,17.8,98,0.5,1,3,9.5,0,0,987,1000.5
2022-06-06T02:17:00+09:00,0.3,��,1.6,�쐼,17.6,97.8,0.5,1,3,9.5,0,0,987,1000.5
2022-06-06T02:18:00+09:00,0.3,�쓌,1.6,�쐼,17.7,97.9,0,1,3,9.5,0,0,987,1000.5
2022-06-06T02:19:00+09:00,0.3,�쓌,1.7,�쐼,17.6,97.7,0,1,3,9.5,0,0,987,1000.5
2022-06-06T02:20:00+09:00,0.4,��쓌,1.8,�쐼,17.5,97.2,0,1,3,9.5,0,0,987,1000.5
2022-06-06T02:21:00+09:00,0.5,��쐼,1.8,�쐼,17.6,97.3,0,1,3,9.5,0,0,987,1000.5
2022-06-06T02:22:00+09:00,0.5,��쐼,1.8,�쐼,17.4,97,0,1,3,9.5,0,0,986.9,1000.4
2022-06-06T02:23:00+09:00,0.5,�쐼,1.8,�쐼,17.5,96.9,0,1,3,9.5,0,0,987,1000.5
2022-06-06T02:24:00+09:00,0.7,���쐼,1.9,��,17.6,97.2,0,1,3,9.5,0,0,987,1000.5
2022-06-06T02:25:00+09:00,0.8,���쐼,1.9,��,17.7,97.3,0,1,3,9.5,0,0,987.1,1000.6
2022-06-06T02:26:00+09:00,0.9,���쐼,1.9,��,17.5,97.1,0,1,3,9.5,0,0,987.1,1000.6
2022-06-06T02:27:00+09:00,1,���쐼,2.3,���쐼,17.4,96.7,0,1,3,9.5,0,0,987.1,1000.6
2022-06-06T02:28:00+09:00,1.2,���쐼,2.5,��,17.5,97,0.5,1.5,3.5,10,0,0,987.2,1000.7
2022-06-06T02:29:00+09:00,1.3,���쐼,2.5,��,17.5,97,0.5,1.5,3.5,10,0,0,987.2,1000.7
2022-06-06T02:30:00+09:00,1.3,���쐼,2.5,��,17.5,97.1,0.5,1.5,3.5,10,0,0,987.3,1000.8
2022-06-06T02:31:00+09:00,1.3,��,2.5,��,17.5,97.1,0.5,1.5,3.5,10,0,0,987.3,1000.8
2022-06-06T02:32:00+09:00,1.3,��,2.5,��,17.4,97.2,0.5,1.5,3.5,10,0,0,987.3,1000.8
2022-06-06T02:33:00+09:00,1.4,��,2.5,��,17.5,97.2,0.5,1.5,3.5,10,0,0,987.3,1000.8
2022-06-06T02:34:00+09:00,1.4,��,2.5,��,17.5,97.3,0.5,1.5,3.5,10,0,0,987.2,1000.7
2022-06-06T02:35:00+09:00,1.4,��,2.5,��,17.6,97.4,0.5,1.5,3.5,10,0,0,987.2,1000.7
2022-06-06T02:36:00+09:00,1.5,��,2.5,��,17.5,97.5,0.5,1.5,3.5,10,0,0,987.2,1000.7
2022-06-06T02:37:00+09:00,1.5,��,2.5,��,17.5,97.4,0.5,1.5,3.5,10,0,0,987.3,1000.8
2022-06-06T02:38:00+09:00,1.4,��,2.2,���k��,17.5,97.5,0.5,2,4,10.5,0,0,987.2,1000.7
2022-06-06T02:39:00+09:00,1.4,��,2.2,���k��,17.6,97.5,0.5,2,4,10.5,0,0,987.2,1000.7
2022-06-06T02:40:00+09:00,1.5,���k��,2.5,�k��,17.6,97.7,0.5,1.5,4,10.5,0,0,987.2,1000.7
2022-06-06T02:41:00+09:00,1.6,���k��,2.5,�k��,17.6,97.7,0.5,1.5,4,10.5,0,0,987.2,1000.7
2022-06-06T02:42:00+09:00,1.6,���k��,2.5,�k��,17.6,97.7,0.5,1.5,4,10.5,0,0,987.2,1000.7
2022-06-06T02:43:00+09:00,1.5,���k��,2.5,�k��,17.8,97.8,0.5,1.5,4,10.5,0,0,987.1,1000.6
2022-06-06T02:44:00+09:00,1.4,���k��,2.5,�k��,17.9,97.9,0.5,1.5,4,10.5,0,0,987.1,1000.6
2022-06-06T02:45:00+09:00,1.3,���k��,2.5,�k��,17.5,97.8,0.5,1.5,4,10.5,0,0,987,1000.5
2022-06-06T02:46:00+09:00,1.1,���k��,2.5,�k��,17.5,97.6,0.5,1.5,4,10.5,0,0,987,1000.5
2022-06-06T02:47:00+09:00,1,�k��,2.5,�k��,17.6,97.7,0.5,1.5,4,10.5,0,0,986.9,1000.4
2022-06-06T02:48:00+09:00,0.8,�k��,2.5,�k��,17.4,97.7,0,1.5,4,10.5,0,0,986.9,1000.4
2022-06-06T02:49:00+09:00,0.7,�k��,2.5,�k��,17.5,97.7,0,1.5,4,10.5,0,0,986.9,1000.4
2022-06-06T02:50:00+09:00,0.5,�k��,2.3,�k��,17.5,97.8,0.5,2,4.5,11,0,0,986.9,1000.4
2022-06-06T02:51:00+09:00,0.3,���k��,1.7,�k��,17.5,97.7,0.5,2,4.5,11,0,0,986.8,1000.3
2022-06-06T02:52:00+09:00,0.2,�É�,0.9,�k��,17.4,97.7,0.5,2,4.5,11,0,0,986.8,1000.3
2022-06-06T02:53:00+09:00,0.2,�É�,0.9,�k��,17.4,97.8,0.5,2,4.5,11,0,0,986.7,1000.2
2022-06-06T02:54:00+09:00,0.1,�É�,0.9,�k��,17.2,97.7,1,2.5,5,11.5,0,0,986.6,1000.1
2022-06-06T02:55:00+09:00,0.1,�É�,0.5,���쐼,17.3,97.6,1,2.5,5,11.5,0,0,986.5,1000
2022-06-06T02:56:00+09:00,0.1,�É�,0.6,�k,17.3,97.9,1,2.5,5,11.5,0,0,986.5,1000
2022-06-06T02:57:00+09:00,0.1,�É�,0.6,�k,17.5,98,1,2.5,5,11.5,0,0,986.4,999.9
2022-06-06T02:58:00+09:00,0.1,�É�,0.6,�k,17.3,97.9,1,2.5,5,11.5,0,0,986.4,999.9
2022-06-06T02:59:00+09:00,0.1,�É�,0.6,�k,17.3,97.8,1,2.5,5,11.5,0,0,986.4,999.9
2022-06-06T03:00:00+09:00,0.1,�É�,0.6,�k,17.3,97.9,0.5,2.5,5,11.5,0,0,986.5,1000
2022-06-06T03:01:00+09:00,0.1,�É�,0.6,�k,17.3,98,0.5,2.5,5,11.5,0,0,986.5,1000
2022-06-06T03:02:00+09:00,0.1,�É�,0.6,�k,17.3,98,1,3,5.5,12,0,0,986.5,1000
2022-06-06T03:03:00+09:00,0.1,�É�,0.6,�k,17.3,98,1,3,5.5,12,0,0,986.4,999.9
2022-06-06T03:04:00+09:00,0.1,�É�,0.6,�k,17.2,98,0.5,3,5.5,12,0,0,986.4,999.9
2022-06-06T03:05:00+09:00,0.1,�É�,0.6,�k,17.1,97.9,0.5,3,5.5,12,0,0,986.5,1000
2022-06-06T03:06:00+09:00,0.1,�É�,1.1,��,17.3,98,0.5,3,5.5,12,0,0,986.5,1000
2022-06-06T03:07:00+09:00,0.2,�É�,1.1,��,17.3,98.1,0.5,3,5.5,12,0,0,986.5,1000
2022-06-06T03:08:00+09:00,0.3,�k�k��,1.2,��,17.3,98.1,1,3,6,12.5,0,0,986.5,1000
2022-06-06T03:09:00+09:00,0.4,���k��,1.6,��,17.1,98,1,3,6,12.5,0,0,986.5,1000
2022-06-06T03:10:00+09:00,0.6,���k��,1.8,��,17.1,98,1,3,6,12.5,0,0,986.5,1000
2022-06-06T03:11:00+09:00,0.7,���k��,1.8,��,17.1,98,1,3,6,12.5,0,0,986.5,1000
2022-06-06T03:12:00+09:00,0.9,��,2,���k��,17.1,98,1,3.5,6.5,13,0,0,986.5,1000
2022-06-06T03:13:00+09:00,1.1,��,2.2,��,17.1,98.1,1,3.5,6.5,13,0,0,986.5,1000
2022-06-06T03:14:00+09:00,1.2,��,2.2,��,17,98.1,1,3.5,6.5,13,0,0,986.4,999.9
2022-06-06T03:15:00+09:00,1.4,��,2.2,��,17.2,98.2,1,3.5,6.5,13,0,0,986.4,999.9
2022-06-06T03:16:00+09:00,1.5,��,2.2,��,17.2,98.3,1,3.5,6.5,13,0,0,986.3,999.8
2022-06-06T03:17:00+09:00,1.5,��,2.2,��,17.2,98.2,1,3.5,6.5,13,0,0,986.3,999.8
2022-06-06T03:18:00+09:00,1.6,���k��,2.2,��,17.2,98.3,1,4,7,13.5,0,0,986.4,999.9
2022-06-06T03:19:00+09:00,1.6,���k��,2.2,��,17.2,98.2,1,4,7,13.5,0,0,986.4,999.9
2022-06-06T03:20:00+09:00,1.6,���k��,2.4,���k��,17.1,98.2,1,4,7,13.5,0,0,986.4,999.9
2022-06-06T03:21:00+09:00,1.7,���k��,2.4,���k��,17.1,98.2,1,4,7,13.5,0,0,986.4,999.9
2022-06-06T03:22:00+09:00,1.7,���k��,2.4,���k��,17,98.2,0.5,4,7,13.5,0,0,986.4,999.9
2022-06-06T03:23:00+09:00,1.7,���k��,2.4,���k��,17.1,98.2,0.5,4,7,13.5,0,0,986.4,999.9
2022-06-06T03:24:00+09:00,1.7,���k��,2.7,��,17.1,98.3,0.5,4,7,13.5,0,0,986.3,999.8
2022-06-06T03:25:00+09:00,1.7,���k��,2.7,��,17.1,98.3,0.5,4,7,13.5,0,0,986.3,999.8
2022-06-06T03:26:00+09:00,1.7,���k��,2.7,��,17.2,98.3,0.5,4,7,13.5,0,0,986.2,999.7
2022-06-06T03:27:00+09:00,1.8,���k��,2.7,��,17.1,98.3,1,4.5,7.5,14,0,0,986.2,999.7
2022-06-06T03:28:00+09:00,1.8,���k��,2.7,��,17.1,98.3,0.5,4,7.5,14,0,0,986.2,999.7
2022-06-06T03:29:00+09:00,1.8,���k��,2.7,��,17.1,98.3,0.5,4,7.5,14,0,0,986.2,999.7
2022-06-06T03:30:00+09:00,1.7,���k��,2.7,��,17.2,98.4,0.5,4,7.5,14,0,0,986.2,999.7
2022-06-06T03:31:00+09:00,1.7,���k��,2.7,��,17.1,98.4,0.5,4,7.5,14,0,0,986.2,999.7
2022-06-06T03:32:00+09:00,1.6,���k��,2.7,��,17.1,98.3,1,4.5,8,14.5,0,0,986.1,999.6
2022-06-06T03:33:00+09:00,1.6,���k��,2.7,��,17.1,98.4,1,4.5,8,14.5,0,0,986.1,999.6
2022-06-06T03:34:00+09:00,1.5,���k��,2.3,���k��,17.1,98.3,1,4.5,8,14.5,0,0,986.1,999.6
2022-06-06T03:35:00+09:00,1.4,���k��,2.3,���k��,17.1,98.3,1.5,5,8.5,15,0,0,986,999.5
2022-06-06T03:36:00+09:00,1.2,���k��,2.3,���k��,17.1,98.4,1.5,5,8.5,15,0,0,986,999.5
2022-06-06T03:37:00+09:00,1.1,���k��,2,��,17.1,98.3,1,5,8.5,15,0,0,986,999.5
2022-06-06T03:38:00+09:00,0.9,���k��,2,��,17.1,98.4,1.5,5,9,15.5,0,0,986,999.5
2022-06-06T03:39:00+09:00,0.9,�k��,2,��,17.1,98.4,1.5,5,9,15.5,0,0,986,999.5
2022-06-06T03:40:00+09:00,0.8,�k��,2,��,17.1,98.4,1.5,5,9,15.5,0,0,986,999.5
2022-06-06T03:41:00+09:00,0.7,�k��,1.7,���k��,17.2,98.5,2,5.5,9.5,16,0,0,985.9,999.4
2022-06-06T03:42:00+09:00,0.7,�k��,1.7,���k��,17.2,98.5,1.5,5.5,9.5,16,0,0,986,999.5
2022-06-06T03:43:00+09:00,0.6,�k��,1.6,���k��,17.1,98.4,1.5,5.5,9.5,16,0,0,986,999.5
2022-06-06T03:44:00+09:00,0.6,�k��,1.5,��,17,98.4,1.5,5.5,9.5,16,0,0,986,999.5
2022-06-06T03:45:00+09:00,0.6,�k��,1.5,��,17,98.3,1,5.5,9.5,16,0,0,986.1,999.6
2022-06-06T03:46:00+09:00,0.6,���k��,1.5,��,17,98.4,1,5.5,9.5,16,0,0,986.1,999.6
2022-06-06T03:47:00+09:00,0.6,���k��,1.5,��,17,98.4,1,5.5,9.5,16,0,0,986.1,999.6
2022-06-06T03:48:00+09:00,0.7,���k��,1.5,��,17,98.4,0.5,5.5,9.5,16,0,0,986.1,999.6
2022-06-06T03:49:00+09:00,0.7,���k��,1.6,���k��,17.2,98.5,1,6,10,16.5,0,0,986.1,999.6
2022-06-06T03:50:00+09:00,0.8,���k��,1.6,���k��,17,98.5,1,5.5,10,16.5,0,0,986.1,999.6
2022-06-06T03:51:00+09:00,0.8,��,1.6,���k��,17,98.3,0.5,5.5,10,16.5,0,0,986.2,999.7
2022-06-06T03:52:00+09:00,0.8,��,1.6,���k��,16.9,98.3,0.5,5.5,10,16.5,0,0,986.2,999.7
2022-06-06T03:53:00+09:00,0.9,��,1.7,��,16.9,98.3,0.5,5.5,10,16.5,0,0,986.1,999.6
2022-06-06T03:54:00+09:00,1,��,1.9,��,16.8,98.3,0.5,5,10,16.5,0,0,986,999.5
2022-06-06T03:55:00+09:00,1,��,1.9,��,16.9,98.4,1,5.5,10.5,17,0,0,986,999.5
2022-06-06T03:56:00+09:00,0.9,��,1.9,��,17.1,98.5,1,5.5,10.5,17,0,0,986,999.5
2022-06-06T03:57:00+09:00,1,���k��,1.9,��,17.1,98.6,1,5.5,10.5,17,0,0,986,999.5
2022-06-06T03:58:00+09:00,1,���k��,1.9,��,17.1,98.6,1,5.5,10.5,17,0,0,986,999.5
2022-06-06T03:59:00+09:00,1,���k��,1.9,��,17.1,98.5,0.5,5.5,10.5,17,0,0,986,999.5
2022-06-06T04:00:00+09:00,1,���k��,2.1,��,17,98.4,1,6,11,17.5,0,0,986,999.5
2022-06-06T04:01:00+09:00,1.1,���k��,2.5,��,17,98.5,1,6,11,17.5,0,0,986,999.5
2022-06-06T04:02:00+09:00,1.3,���k��,3.3,��,17,98.4,1,5.5,11,17.5,0,0,986.1,999.6
2022-06-06T04:03:00+09:00,1.4,���k��,3.3,��,16.9,98.3,1,5.5,11,17.5,0,0,986.1,999.6
2022-06-06T04:04:00+09:00,1.6,���k��,4.2,��,16.8,98.3,1,5.5,11,17.5,0,0,986.1,999.6
2022-06-06T04:05:00+09:00,1.8,���k��,4.2,��,16.7,98.3,0.5,5.5,11,17.5,0,0,986.2,999.7
2022-06-06T04:06:00+09:00,2.1,���k��,4.2,��,16.8,98.4,0.5,5.5,11,17.5,0,0,986.2,999.7
2022-06-06T04:07:00+09:00,2.2,��,4.2,��,16.8,98.5,1,6,11.5,18,0,0,986.2,999.7
2022-06-06T04:08:00+09:00,2.4,��,4.2,��,16.8,98.5,1,5.5,11.5,18,0,0,986.2,999.7
2022-06-06T04:09:00+09:00,2.6,��,4.2,��,16.8,98.5,1,5.5,11.5,18,0,0,986.1,999.6
2022-06-06T04:10:00+09:00,2.6,��,4.2,��,16.9,98.5,0.5,5.5,11.5,18,0,0,986,999.5
2022-06-06T04:11:00+09:00,2.5,��,4.2,��,16.9,98.5,1,6,12,18.5,0,0,986,999.5
2022-06-06T04:12:00+09:00,2.3,���k��,4.2,��,17,98.6,1,5.5,12,18.5,0,0,986,999.5
2022-06-06T04:13:00+09:00,2.1,���k��,4.2,��,17.1,98.6,1,5.5,12,18.5,0,0,986,999.5
2022-06-06T04:14:00+09:00,1.9,���k��,3.9,��,17,98.6,1,5.5,12,18.5,0,0,986,999.5
2022-06-06T04:15:00+09:00,1.8,���k��,3.9,��,17,98.5,1.5,6,12.5,19,0,0,986,999.5
2022-06-06T04:16:00+09:00,1.7,���k��,3.5,���k��,17,98.5,1.5,6,12.5,19,0,0,986,999.5
2022-06-06T04:17:00+09:00,1.7,���k��,3.5,���k��,16.9,98.5,1,6,12.5,19,0,0,986,999.5
2022-06-06T04:18:00+09:00,,,,,,,,,,,,,,
2022-06-06T04:19:00+09:00,1.4,�k��,3,��,17,98.5,1,5.5,12.5,19,0,0,986,999.5
2022-06-06T04:20:00+09:00,1.3,�k��,2.4,���k��,17.1,98.6,1.5,6,13,19.5,0,0,986,999.5
2022-06-06T04:21:00+09:00,1.3,���k��,2.4,���k��,17,98.5,1,6,13,19.5,0,0,986,999.5
2022-06-06T04:22:00+09:00,1.3,���k��,2.4,���k��,17,98.5,1,6,13,19.5,0,0,985.9,999.4
2022-06-06T04:23:00+09:00,1.2,���k��,2.4,���k��,17,98.5,1,6,13,19.5,0,0,985.9,999.4
2022-06-06T04:24:00+09:00,1.2,�k��,2.4,���k��,17.1,98.5,1.5,6.5,13.5,20,0,0,985.8,999.3
2022-06-06T04:25:00+09:00,1.1,�k��,2.3,���k��,17.2,98.7,1,6.5,13.5,20,0,0,985.7,999.2
2022-06-06T04:26:00+09:00,1.1,�k�k��,2.1,���k��,17.1,98.6,1,6.5,13.5,20,0,0,985.6,999.1
2022-06-06T04:27:00+09:00,1,�k,2,��,17.1,98.6,1,6,13.5,20,0,0,985.4,998.9
2022-06-06T04:28:00+09:00,0.9,�k,1.9,��,17.1,98.6,1.5,6.5,14,20.5,0,0,985.2,998.7
2022-06-06T04:29:00+09:00,0.9,�k�k��,1.9,��,17,98.5,1.5,6.5,14,20.5,0,0,985.1,998.6
2022-06-06T04:30:00+09:00,0.9,�k��,1.9,��,17,98.5,1,6.5,14,20.5,0,0,985.1,998.6
2022-06-06T04:31:00+09:00,0.9,�k��,1.8,�k��,17,98.5,1.5,7,14.5,21,0,0,985.3,998.8
2022-06-06T04:32:00+09:00,0.9,�k��,1.8,�k��,17,98.5,1.5,6.5,14.5,21,0,0,985.4,998.9
2022-06-06T04:33:00+09:00,1,�k��,1.8,�k��,17.1,98.5,1.5,6.5,14.5,21,0,0,985.5,999
2022-06-06T04:34:00+09:00,0.9,�k��,1.8,�k��,17.2,98.7,1,6.5,14.5,21,0,0,985.5,999
2022-06-06T04:35:00+09:00,0.8,�k��,1.7,���k��,17.1,98.5,1,6,14.5,21,0,0,985.5,999
2022-06-06T04:36:00+09:00,0.8,�k�k��,1.7,���k��,17.2,98.6,1.5,6.5,15,21.5,0,0,985.5,999
2022-06-06T04:37:00+09:00,0.7,�k�k��,1.7,���k��,17.1,98.6,1.5,6.5,15,21.5,0,0,985.5,999
2022-06-06T04:38:00+09:00,0.7,�k�k��,1.7,���k��,17,98.5,1,6,15,21.5,0,0,985.5,999
2022-06-06T04:39:00+09:00,0.6,�k�k��,1.7,���k��,17.1,98.5,1,6,15,21.5,0,0,985.5,999
2022-06-06T04:40:00+09:00,0.5,�k,1.4,�k,17.1,98.6,1.5,6.5,15.5,22,0,0,985.4,998.9
2022-06-06T04:41:00+09:00,0.5,�k,1.4,�k,17.3,98.6,1,6,15.5,22,0,0,985.4,998.9
2022-06-06T04:42:00+09:00,0.4,�k,1.4,�k,17.1,98.5,1,6,15.5,22,0,0,985.4,998.9
2022-06-06T04:43:00+09:00,0.5,�k�k��,1.6,���k��,17,98.5,1,6,15.5,22,0,0,985.3,998.8
2022-06-06T04:44:00+09:00,0.5,�k�k��,1.6,���k��,17.1,98.5,1,6,15.5,22,0,0,985.3,998.8
2022-06-06T04:45:00+09:00,0.5,�k�k��,1.6,���k��,17.1,98.5,1,6,15.5,22,0,0,985.2,998.7
2022-06-06T04:46:00+09:00,0.6,�k�k��,1.8,��,17,98.5,0.5,6,15.5,22,0,0,985.2,998.7
2022-06-06T04:47:00+09:00,0.7,�k�k��,2.7,���k��,17.1,98.4,0.5,6,15.5,22,0,0,985.1,998.6
2022-06-06T04:48:00+09:00,0.8,�k,2.7,���k��,17,98.5,0.5,6,15.5,22,0,0,985.1,998.6
2022-06-06T04:49:00+09:00,0.9,�k,2.7,���k��,17.1,98.5,1,6,16,22.5,0,0,985,998.5
2022-06-06T04:50:00+09:00,1,�k,2.7,���k��,17.2,98.5,0.5,6,16,22.5,0,0,985,998.5
2022-06-06T04:51:00+09:00,1,�k�k��,2.7,���k��,17.2,98.6,0.5,6,16,22.5,0,0,984.9,998.4
2022-06-06T04:52:00+09:00,1,�k�k��,2.7,���k��,17.1,98.5,0.5,6,16,22.5,0,0,984.9,998.4
2022-06-06T04:53:00+09:00,0.9,�k��,2.7,���k��,17.3,98.5,0.5,6,16,22.5,0,0,984.9,998.4